EW2837 Weather Reports


time (UTC)temp
C
wind
direction
speed
KPH
gust
KPH
rain 1hr
cm
rain 24hr
cm
rain mn
cm
humidity
%
barometer
mb
20260505171527 13 189 1.6 4.8 0.00 0.03 0.03 93 1016.1
20260505171027 13 165 0.0 4.8 0.00 0.03 0.03 94 1016.1
20260505170525 13 194 3.2 8.0 0.00 0.03 0.03 94 1016.1
20260505170025 12 136 4.8 8.0 0.00 0.03 0.03 94 1016.1
20260505165526 12 67 3.2 4.8 0.00 0.03 0.03 94 1016.1
20260505165028 12 109 3.2 8.0 0.00 0.03 0.03 95 1016.1
20260505164529 12 111 3.2 6.4 0.00 0.03 0.03 95 1016.0
20260505164028 12 159 1.6 6.4 0.00 0.03 0.03 95 1016.1
20260505163514 12 188 1.6 6.4 0.00 0.03 0.03 95 1016.0
20260505163015 12 151 3.2 6.4 0.00 0.03 0.03 95 1015.9
20260505162516 12 102 1.6 4.8 0.00 0.03 0.03 96 1015.9
20260505162017 12 162 0.0 4.8 0.00 0.03 0.03 96 1015.9
20260505161519 12 147 1.6 4.8 0.00 0.03 0.03 96 1015.9
20260505161021 12 180 3.2 4.8 0.00 0.03 0.03 96 1015.9
20260505160523 12 155 1.6 4.8 0.00 0.03 0.03 96 1015.8
20260505153047 12 234 0.0 1.6 0.00 0.03 0.03 96 1015.6
20260505152527 12 234 0.0 1.6 0.00 0.03 0.03 96 1015.6
20260505152014 12 234 0.0 1.6 0.00 0.03 0.03 96 1015.6
20260505151514 11 234 0.0 1.6 0.03 0.03 0.03 96 1015.6
20260505151014 12 232 0.0 3.2 0.03 0.03 0.03 97 1015.5
20260505150517 12 222 0.0 3.2 0.03 0.03 0.03 96 1015.5
20260505140546 11 234 3.2 3.2 0.00 0.00 0.00 96 1014.9
20260505125022 11 292 1.6 4.8 0.00 0.00 0.00 96 1014.6
20260505124528 11 271 1.6 3.2 0.00 0.00 0.00 96 1014.5
20260505124030 11 249 1.6 4.8 0.00 0.00 0.00 96 1014.5
20260505123511 11 250 1.6 4.8 0.00 0.00 0.00 96 1014.6
20260505123030 11 225 1.6 3.2 0.00 0.00 0.00 95 1014.6
20260505122530 11 218 1.6 3.2 0.00 0.00 0.00 95 1014.6
20260505122032 11 201 1.6 3.2 0.00 0.00 0.00 95 1014.5
20260505121513 11 212 0.0 3.2 0.00 0.00 0.00 95 1014.5
20260505121012 11 256 1.6 3.2 0.00 0.00 0.00 95 1014.5
20260505120531 11 257 1.6 3.2 0.00 0.00 0.00 95 1014.5
20260505120012 11 254 1.6 3.2 0.00 0.00 0.00 95 1014.5
20260505115514 11 232 0.0 3.2 0.00 0.00 0.00 95 1014.4
20260505115015 11 232 1.6 3.2 0.00 0.00 0.00 95 1014.4
20260505114517 11 258 1.6 3.2 0.00 0.00 0.00 95 1014.5
20260505114022 11 220 1.6 3.2 0.00 0.00 0.00 94 1014.3
20260505113521 11 234 1.6 4.8 0.00 0.00 0.00 94 1014.4
20260505113020 11 238 1.6 4.8 0.00 0.00 0.00 94 1014.4
20260505112520 11 196 0.0 3.2 0.00 0.00 0.00 93 1014.5
20260505112022 12 193 0.0 3.2 0.00 0.00 0.00 93 1014.5
20260505111522 12 213 1.6 3.2 0.00 0.00 0.00 92 1014.5
20260505111043 12 231 1.6 3.2 0.00 0.00 0.00 92 1014.4
20260505110518 12 231 1.6 3.2 0.00 0.00 0.00 91 1014.3
20260505102024 12 207 0.0 3.2 0.00 0.00 0.00 91 1014.0
20260505101526 12 207 1.6 3.2 0.00 0.00 0.00 92 1013.9
20260505101027 12 238 0.0 3.2 0.00 0.00 0.00 92 1013.9
20260505100524 12 238 1.6 3.2 0.00 0.00 0.00 92 1014.0
20260505100027 12 238 1.6 1.6 0.00 0.00 0.00 92 1014.0
20260505095529 12 238 0.0 1.6 0.00 0.00 0.00 92 1014.0
20260505095029 12 238 0.0 1.6 0.00 0.00 0.00 92 1014.0
20260505094530 12 238 0.0 0.0 0.00 0.00 0.00 92 1013.9
20260505094011 11 238 0.0 0.0 0.00 0.00 0.00 92 1013.9
20260505093513 11 238 0.0 0.0 0.00 0.00 0.00 92 1013.9
20260505093032 11 238 0.0 1.6 0.00 0.00 0.00 92 1013.8
20260505092513 11 238 0.0 1.6 0.00 0.00 0.00 93 1013.8
20260505092015 11 238 0.0 3.2 0.00 0.00 0.00 93 1013.7
20260505091518 11 238 0.0 4.8 0.00 0.00 0.00 93 1013.6
20260505091024 11 246 1.6 4.8 0.00 0.00 0.00 93 1013.5
20260505090525 11 255 0.0 4.8 0.00 0.00 0.00 93 1013.5
20260505090047 11 255 0.0 6.4 0.00 0.00 0.00 93 1013.6
20260505085527 11 231 1.6 6.4 0.00 0.00 0.00 93 1013.5
20260505085028 11 234 0.0 3.2 0.00 0.00 0.00 93 1013.5
20260505084529 11 236 1.6 3.2 0.00 0.00 0.00 93 1013.4
20260505084030 11 228 0.0 4.8 0.00 0.00 0.00 93 1013.4
20260505083511 11 228 0.0 4.8 0.00 0.00 0.00 93 1013.4
20260505083052 11 181 1.6 4.8 0.00 0.00 0.00 93 1013.4
20260505082514 11 245 3.2 4.8 0.00 0.00 0.00 93 1013.3
20260505082015 11 269 1.6 3.2 0.00 0.00 0.00 93 1013.3
20260505081518 11 171 1.6 4.8 0.00 0.00 0.00 93 1013.2
20260505081019 11 197 3.2 4.8 0.00 0.00 0.00 92 1013.3
20260505080542 11 246 0.0 4.8 0.00 0.00 0.00 92 1013.3
20260505080020 11 226 1.6 6.4 0.00 0.00 0.00 92 1013.3
20260505075526 11 155 1.6 8.0 0.00 0.00 0.00 92 1013.3
20260505075026 11 207 4.8 8.0 0.00 0.00 0.00 92 1013.2
20260505074527 11 221 1.6 6.4 0.00 0.00 0.00 92 1013.1
20260505074028 11 238 0.0 3.2 0.00 0.00 0.00 92 1013.0
20260505073529 11 229 0.0 3.2 0.00 0.00 0.00 91 1013.0
20260505073051 11 206 0.0 4.8 0.00 0.00 0.00 91 1012.9
20260505072530 11 257 0.0 6.4 0.00 0.00 0.00 91 1012.7
20260505072011 11 254 3.2 6.4 0.00 0.00 0.00 91 1012.7
20260505071533 11 302 1.6 4.8 0.00 0.00 0.00 91 1012.5
20260505071051 11 246 3.2 6.4 0.00 0.00 0.00 90 1012.5
20260505070550 11 296 0.0 9.7 0.00 0.00 0.00 90 1012.4
20260505070030 11 247 3.2 9.7 0.00 0.00 0.00 90 1012.4
20260505065551 12 303 3.2 11.3 0.00 0.00 0.00 90 1012.3
20260505065030 12 273 6.4 11.3 0.00 0.00 0.00 89 1012.2
20260505064512 12 294 4.8 11.3 0.00 0.00 0.00 89 1012.2
20260505064013 12 216 6.4 12.9 0.00 0.00 0.00 89 1012.1
20260505063516 12 266 4.8 12.9 0.00 0.00 0.00 88 1012.0
20260505063015 12 248 6.4 11.3 0.00 0.00 0.00 88 1012.0
20260505062522 12 247 4.8 9.7 0.00 0.00 0.00 87 1012.0
20260505062024 12 252 6.4 11.3 0.00 0.00 0.00 87 1011.9
20260505061546 12 221 4.8 11.3 0.00 0.00 0.00 86 1011.8
20260505061047 12 249 3.2 6.4 0.00 0.00 0.00 86 1011.8
20260505060528 12 252 3.2 8.0 0.00 0.00 0.00 85 1011.7
20260505060029 13 226 3.2 8.0 0.00 0.00 0.00 85 1011.7
20260505055530 13 234 4.8 9.7 0.00 0.00 0.00 84 1011.6
20260505055013 13 236 3.2 9.7 0.00 0.00 0.00 84 1011.6
20260505054515 13 217 1.6 8.0 0.00 0.00 0.00 83 1011.5
20260505054018 13 221 4.8 8.0 0.00 0.00 0.00 83 1011.5
20260505053519 13 215 1.6 4.8 0.00 0.00 0.00 82 1011.5
20260505053041 13 193 1.6 4.8 0.00 0.00 0.00 82 1011.5
20260505052522 13 230 0.0 8.0 0.00 0.00 0.00 82 1011.4
20260505052024 14 257 4.8 12.9 0.00 0.00 0.00 81 1011.3
20260505051511 14 304 4.8 12.9 0.00 0.00 0.00 81 1011.3
20260505051030 14 261 1.6 9.7 0.00 0.00 0.00 81 1011.2
20260505050532 14 241 4.8 9.7 0.00 0.00 0.00 81 1011.1
20260505041517 16 237 4.8 20.9 0.00 0.00 0.00 74 1010.4
20260505041014 16 250 9.7 20.9 0.00 0.00 0.00 73 1010.4
20260505040512 17 244 6.4 14.5 0.00 0.00 0.00 73 1010.3
20260505040028 17 279 4.8 14.5 0.00 0.00 0.00 72 1010.2
20260505035526 17 292 3.2 9.7 0.00 0.00 0.00 72 1010.1
20260505035025 17 290 4.8 11.3 0.00 0.00 0.00 72 1010.0
20260505034524 17 247 3.2 11.3 0.00 0.00 0.00 71 1009.9
20260505034023 17 253 4.8 11.3 0.00 0.00 0.00 71 1009.9
20260505033525 17 262 4.8 11.3 0.00 0.00 0.00 70 1009.8
20260505033019 18 242 3.2 8.0 0.00 0.00 0.00 70 1009.8
20260505032516 18 234 1.6 8.0 0.00 0.00 0.00 69 1009.8
20260505032016 18 265 1.6 4.8 0.00 0.00 0.00 69 1009.6
20260505031511 18 252 1.6 8.0 0.00 0.00 0.00 68 1009.5
20260505031013 19 323 3.2 9.7 0.00 0.00 0.00 67 1009.5
20260505030512 19 243 6.4 12.9 0.00 0.00 0.00 67 1009.4
20260505030027 19 277 3.2 12.9 0.00 0.00 0.00 67 1009.3
20260505025529 19 260 4.8 14.5 0.00 0.00 0.00 66 1009.2
20260505025047 20 275 6.4 14.5 0.00 0.00 0.00 65 1009.2
20260505024520 20 237 4.8 12.9 0.00 0.00 0.00 65 1009.1
20260505024017 20 272 4.8 12.9 0.00 0.00 0.00 64 1008.9
20260505023515 21 285 6.4 16.1 0.00 0.00 0.00 63 1008.9
20260505023030 21 235 8.0 16.1 0.00 0.00 0.00 63 1008.9
20260505022528 21 298 6.4 11.3 0.00 0.00 0.00 63 1008.8
20260505022026 21 302 4.8 11.3 0.00 0.00 0.00 63 1008.9
20260505021541 22 257 6.4 11.3 0.00 0.00 0.00 64 1008.9
20260505021039 22 207 3.2 12.9 0.00 0.00 0.00 64 1008.9
20260505020516 22 234 8.0 12.9 0.00 0.00 0.00 64 1008.9
20260505020014 22 251 3.2 9.7 0.00 0.00 0.00 62 1008.9
20260505015535 22 248 6.4 9.7 0.00 0.00 0.00 64 1008.9
20260505015014 23 261 3.2 6.4 0.00 0.00 0.00 64 1008.9
20260505014520 23 196 3.2 9.7 0.00 0.00 0.00 63 1008.8
20260505014021 23 274 4.8 14.5 0.00 0.00 0.00 63 1008.9
20260505013522 23 265 6.4 14.5 0.00 0.00 0.00 63 1008.9
20260505013024 23 232 4.8 11.3 0.00 0.00 0.00 61 1008.9
20260505012524 23 196 6.4 11.3 0.00 0.00 0.00 62 1008.9
20260505012026 23 229 6.4 9.7 0.00 0.00 0.00 61 1009.0
20260505011524 23 181 6.4 9.7 0.00 0.00 0.00 62 1009.0
20260505011026 23 206 0.0 6.4 0.00 0.00 0.00 62 1009.1
20260505010528 23 220 3.2 11.3 0.00 0.00 0.00 60 1009.1
20260505010029 23 256 3.2 11.3 0.00 0.00 0.00 60 1009.0
20260505005530 23 198 4.8 9.7 0.00 0.00 0.00 63 1009.1
20260505005029 23 151 3.2 9.7 0.00 0.00 0.00 61 1009.1
20260505004551 23 136 4.8 9.7 0.00 0.00 0.00 62 1009.1
20260505004030 23 246 4.8 9.7 0.00 0.00 0.00 61 1009.1
20260505003530 23 269 3.2 11.3 0.00 0.00 0.00 61 1009.1
20260505003048 23 151 6.4 11.3 0.00 0.00 0.00 62 1009.2
20260505002525 23 167 3.2 9.7 0.00 0.00 0.00 60 1009.2
20260505002026 23 136 4.8 9.7 0.00 0.00 0.00 61 1009.3
20260505001025 24 236 4.8 11.3 0.00 0.00 0.00 59 1009.3
20260505000524 23 161 4.8 11.3 0.00 0.00 0.00 63 1009.4
20260505000025 23 169 4.8 14.5 0.00 0.00 0.00 63 1009.5
20260504235542 23 120 8.0 14.5 0.00 0.00 0.00 59 1009.5
20260504235022 23 157 6.4 11.3 0.00 0.00 0.00 61 1009.5
20260504234523 23 150 3.2 11.3 0.00 0.00 0.00 62 1009.6
20260504234045 23 186 4.8 14.5 0.00 0.00 0.00 62 1009.5
20260504233523 23 176 8.0 14.5 0.00 0.00 0.00 61 1009.5
20260504233044 23 188 4.8 11.3 0.00 0.00 0.00 63 1009.6
20260504232521 22 294 0.0 11.3 0.00 0.00 0.00 61 1009.6
20260504232019 23 166 1.6 11.3 0.00 0.00 0.00 61 1009.6
20260504231517 23 160 6.4 11.3 0.00 0.00 0.00 62 1009.6
20260504231018 23 153 4.8 12.9 0.00 0.00 0.00 62 1009.7
20260504230516 23 240 8.0 14.5 0.00 0.00 0.00 63 1009.8
20260504230022 23 110 8.0 14.5 0.00 0.00 0.00 62 1009.7
20260504225523 22 97 4.8 12.9 0.00 0.00 0.00 61 1009.8
20260504225025 22 78 3.2 12.9 0.00 0.00 0.00 62 1009.9
20260504224547 22 166 6.4 12.9 0.00 0.00 0.00 65 1010.0
20260504224026 22 140 3.2 12.9 0.00 0.00 0.00 63 1010.1
20260504223528 22 126 6.4 12.9 0.00 0.00 0.00 64 1010.2
20260504223029 23 172 8.0 12.9 0.00 0.00 0.00 61 1010.2
20260504222530 22 161 3.2 8.0 0.00 0.00 0.00 63 1010.3
20260504222029 22 109 3.2 9.7 0.00 0.00 0.00 62 1010.4
20260504221528 22 174 4.8 14.5 0.00 0.00 0.00 63 1010.4
20260504221028 22 178 6.4 14.5 0.00 0.00 0.00 63 1010.5
20260504220528 22 42 4.8 11.3 0.00 0.00 0.00 62 1010.6
20260504220029 22 198 4.8 11.3 0.00 0.00 0.00 65 1010.6
20260504215530 22 118 4.8 16.1 0.00 0.00 0.00 62 1010.7
20260504215012 22 180 4.8 16.1 0.00 0.00 0.00 67 1010.8
20260504214516 22 110 4.8 12.9 0.00 0.00 0.00 62 1010.8
20260504214018 22 155 1.6 11.3 0.00 0.00 0.00 61 1010.9
20260504213521 22 229 4.8 11.3 0.00 0.00 0.00 66 1010.9
20260504213023 22 239 6.4 12.9 0.00 0.00 0.00 63 1010.9
20260504212542 21 163 4.8 12.9 0.00 0.00 0.00 67 1011.0
20260504212020 21 79 4.8 14.5 0.00 0.00 0.00 64 1011.1
20260504211519 20 148 1.6 9.7 0.00 0.00 0.00 66 1011.1
20260504211018 21 117 4.8 9.7 0.00 0.00 0.00 63 1011.3
20260504210518 21 158 6.4 9.7 0.00 0.00 0.00 65 1011.3
20260504210019 21 182 6.4 16.1 0.00 0.00 0.00 67 1011.3
20260504205520 20 96 3.2 16.1 0.00 0.00 0.00 66 1011.5
20260504205043 21 121 3.2 14.5 0.00 0.00 0.00 68 1011.6
20260504204522 20 115 1.6 16.1 0.00 0.00 0.00 67 1011.7
20260504204041 20 86 9.7 16.1 0.00 0.00 0.00 66 1011.7
20260504203521 21 84 4.8 14.5 0.00 0.00 0.00 66 1011.8
20260504203023 21 103 4.8 11.3 0.00 0.00 0.00 69 1011.9
20260504202544 20 113 6.4 11.3 0.00 0.00 0.00 69 1011.9
20260504202028 20 111 4.8 14.5 0.00 0.00 0.00 68 1012.0
20260504201527 20 100 9.7 14.5 0.00 0.00 0.00 69 1012.1
20260504201027 20 132 6.4 12.9 0.00 0.00 0.00 70 1012.1
20260504200529 19 91 4.8 12.9 0.00 0.00 0.00 69 1012.1
20260504200028 20 122 6.4 12.9 0.00 0.00 0.00 72 1012.2
20260504195527 19 73 6.4 11.3 0.00 0.00 0.00 69 1012.2
20260504195027 19 156 4.8 12.9 0.00 0.00 0.00 73 1012.3
20260504194525 19 176 6.4 11.3 0.00 0.00 0.00 72 1012.3
20260504194023 18 123 4.8 12.9 0.00 0.00 0.00 72 1012.3
20260504193523 18 165 4.8 14.5 0.00 0.00 0.00 71 1012.4
20260504193019 18 128 8.0 14.5 0.00 0.00 0.00 73 1012.4
20260504192521 18 144 4.8 14.5 0.00 0.00 0.00 71 1012.4
20260504192041 18 111 6.4 14.5 0.00 0.00 0.00 73 1012.5
20260504191519 18 72 9.7 20.9 0.00 0.00 0.00 71 1012.5
20260504191023 18 123 8.0 17.7 0.00 0.00 0.00 71 1012.6
20260504190525 18 176 6.4 14.5 0.00 0.00 0.00 71 1012.6
20260504190027 18 194 6.4 14.5 0.00 0.00 0.00 75 1012.6
20260504185528 17 134 6.4 14.5 0.00 0.00 0.00 74 1012.7
20260504185027 18 150 8.0 16.1 0.00 0.00 0.00 73 1012.8
20260504184527 18 136 8.0 16.1 0.00 0.00 0.00 76 1012.8
20260504184046 17 119 4.8 12.9 0.00 0.00 0.00 75 1012.8
20260504183524 17 173 4.8 12.9 0.00 0.00 0.00 74 1012.7
20260504183024 17 126 4.8 11.3 0.00 0.00 0.00 74 1012.8
20260504182523 17 155 4.8 16.1 0.00 0.00 0.00 73 1012.8
20260504182025 17 70 6.4 16.1 0.00 0.00 0.00 76 1012.8
20260504181526 17 80 4.8 17.7 0.00 0.00 0.00 74 1012.8
20260504181025 17 155 8.0 17.7 0.00 0.00 0.00 77 1012.8
20260504180524 17 105 4.8 16.1 0.00 0.00 0.00 77 1012.8
20260504180025 17 148 4.8 16.1 0.00 0.00 0.00 77 1012.8
20260504175525 17 82 8.0 17.7 0.00 0.00 0.00 76 1012.9
20260504175024 16 127 8.0 17.7 0.00 0.00 0.00 76 1012.9
20260504174545 16 78 8.0 17.7 0.00 0.00 0.00 76 1012.9
20260504174026 16 111 6.4 22.5 0.00 0.00 0.00 76 1012.9
20260504173527 16 167 11.3 22.5 0.00 0.00 0.00 77 1012.9
20260504173029 16 209 8.0 16.1 0.00 0.00 0.00 78 1012.8
20260504172529 16 138 8.0 14.5 0.00 0.00 0.00 77 1013.0
20260504172027 16 150 6.4 14.5 0.00 0.00 0.00 79 1012.9